Weather History for Prescott, AZ

Change the Weather History Date:

Saturday, October 22, 2011

  Actual Average Record
Temperature  
Mean Temperature 62 °F 54 °F  
Max Temperature 79 °F 70 °F 86 °F (2003)
Min Temperature 44 °F 39 °F 18 °F (1996)
Degree Days  
Heating Degree Days 4    
Month to date heating degree days  
Since 1 July heating degree days  
Cooling Degree Days 0    
Month to date cooling degree days  
Year to date cooling degree days  
Growing Degree Days 12 (Base 50)    
Moisture  
Dew Point 23 °F    
Average Humidity 29    
Maximum Humidity 54    
Minimum Humidity 9    
Precipitation  
Precipitation 0.00 in 0.02 in 1.08 in (2000)
Month to date precipitation 0.67  
Year to date precipitation 11.84  
Sea Level Pressure  
Sea Level Pressure 30.07 in    
Wind  
Wind Speed 4 mph (SSW)    
Max Wind Speed 9 mph    
Max Gust Speed -    
Visibility 10 miles    
Events      
T = Trace of Precipitation, MM = Missing Value Source: NWS Daily Summary

Daily Weather History Graph

Daily Weather History Graph

Search for Another Location

Airport:

Trip Planner

Search our weather history database for the weather conditions in past years. The results will help you decide how hot, cold, wet, or windy it might be!

Date:

Astronomy

Oct. 22, 2011 Rise Set
Actual Time 6:41 AM MST 5:46 PM MST
Civil Twilight 6:15 AM MST 6:12 PM MST
Nautical Twilight 5:45 AM MST 6:41 PM MST
Astronomical Twilight 5:16 AM MST 7:10 PM MST
Moon 1:54 AM MST (10/22) 2:57 PM MST (10/22)
Length of Visible Light 11h 56m
Length of Day
11h 05m
Waning Crescent, 22% of the Moon is Illuminated
Oct 22
Waning Crescent
Oct 26
New
Nov 2
First Quarter
Nov 10
Full
Nov 18
Last Quarter

Hourly Weather History & Observations

Time (MST) Temp. Windchill Dew Point Humidity Pressure Visibility Wind Dir Wind Speed Gust Speed Precip Events Conditions
12:53 AM 48.0 °F - 32.0 °F 54% 30.08 in 10.0 mi Calm Calm - N/A   Clear
1:53 AM 48.0 °F - 28.9 °F 48% 30.08 in 10.0 mi SSW 5.8 mph - N/A   Clear
2:53 AM 45.0 °F 41.8 °F 28.9 °F 53% 30.09 in 10.0 mi South 5.8 mph - N/A   Clear
3:53 AM 46.0 °F 43.9 °F 26.1 °F 46% 30.09 in 10.0 mi SSW 4.6 mph - N/A   Clear
4:53 AM 46.0 °F 42.5 °F 26.1 °F 46% 30.10 in 10.0 mi SSW 6.9 mph - N/A   Clear
5:53 AM 45.0 °F 41.8 °F 25.0 °F 46% 30.12 in 10.0 mi South 5.8 mph - N/A   Clear
6:53 AM 44.1 °F 40.8 °F 26.1 °F 49% 30.15 in 10.0 mi SSW 5.8 mph - N/A   Clear
7:53 AM 50.0 °F - 28.0 °F 43% 30.15 in 10.0 mi South 4.6 mph - N/A   Clear
8:53 AM 61.0 °F - 27.0 °F 27% 30.12 in 10.0 mi Calm Calm - N/A   Clear
9:53 AM 66.0 °F - 23.0 °F 20% 30.12 in 10.0 mi North 5.8 mph - N/A   Clear
10:53 AM 70.0 °F - 21.9 °F 16% 30.12 in 10.0 mi Calm Calm - N/A   Clear
11:53 AM 73.9 °F - 19.9 °F 13% 30.08 in 10.0 mi Calm Calm - N/A   Clear
12:53 PM 75.9 °F - 19.9 °F 12% 30.06 in 10.0 mi Variable 3.5 mph - N/A   Clear
1:53 PM 78.1 °F - 19.0 °F 11% 30.03 in 10.0 mi NE 4.6 mph - N/A   Clear
2:53 PM 79.0 °F - 18.0 °F 10% 30.02 in 10.0 mi Variable 3.5 mph - N/A   Clear
3:53 PM 79.0 °F - 15.1 °F 9% 30.00 in 10.0 mi Calm Calm - N/A   Clear
4:53 PM 78.1 °F - 16.0 °F 10% 29.99 in 10.0 mi Calm Calm - N/A   Clear
5:53 PM 72.0 °F - 18.0 °F 13% 30.01 in 10.0 mi NNW 4.6 mph - N/A   Clear
6:53 PM 64.9 °F - 21.0 °F 19% 30.05 in 10.0 mi Calm Calm - N/A   Clear
7:53 PM 57.9 °F - 25.0 °F 28% 30.06 in 10.0 mi South 4.6 mph - N/A   Clear
8:53 PM 57.0 °F - 23.0 °F 27% 30.04 in 10.0 mi South 6.9 mph - N/A   Clear
9:53 PM 55.0 °F - 21.9 °F 28% 30.04 in 10.0 mi SSW 6.9 mph - N/A   Clear
10:53 PM 52.0 °F - 23.0 °F 32% 30.04 in 10.0 mi South 9.2 mph - N/A   Clear
11:53 PM 51.1 °F - 23.0 °F 33% 30.03 in 10.0 mi South 6.9 mph - N/A   Clear